Year,Month,Day,Hour,Minute,Value (Times are PST for windgust in km/hr)
2017,05,22,00,00,3.20
2017,05,22,00,01,3.20
2017,05,22,00,02,1.60
2017,05,22,00,03,3.20
2017,05,22,00,04,1.60
2017,05,22,00,07,1.60
2017,05,22,00,08,3.20
2017,05,22,00,09,1.60
2017,05,22,00,10,1.60
2017,05,22,00,11,3.20
2017,05,22,00,13,1.60
2017,05,22,00,14,3.20
2017,05,22,00,15,3.20
2017,05,22,00,16,1.60
2017,05,22,00,18,3.20
2017,05,22,00,19,4.80
2017,05,22,00,20,3.20
2017,05,22,00,21,3.20
2017,05,22,00,22,1.60
2017,05,22,00,23,1.60
2017,05,22,00,24,1.60
2017,05,22,00,27,3.20
2017,05,22,00,28,3.20
2017,05,22,00,29,3.20
2017,05,22,00,30,3.20
2017,05,22,00,31,3.20
2017,05,22,00,35,1.60
2017,05,22,00,36,3.20
2017,05,22,00,37,1.60
2017,05,22,00,39,1.60
2017,05,22,00,40,1.60
2017,05,22,00,41,3.20
2017,05,22,00,42,3.20
2017,05,22,00,43,3.20
2017,05,22,00,44,3.20
2017,05,22,00,48,3.20
2017,05,22,00,49,3.20
2017,05,22,00,50,3.20
2017,05,22,00,51,1.60
2017,05,22,00,52,1.60
2017,05,22,00,53,3.20
2017,05,22,00,54,3.20
2017,05,22,00,55,3.20
2017,05,22,00,59,1.60
2017,05,22,01,00,1.60
2017,05,22,01,02,1.60
2017,05,22,01,03,1.60
2017,05,22,01,04,3.20
2017,05,22,01,05,3.20
2017,05,22,01,06,1.60
2017,05,22,01,07,1.60
2017,05,22,01,08,1.60
2017,05,22,01,09,1.60
2017,05,22,01,10,3.20
2017,05,22,01,11,3.20
2017,05,22,01,12,1.60
2017,05,22,01,23,1.60
2017,05,22,01,59,1.60
2017,05,22,02,00,3.20
2017,05,22,02,01,1.60
2017,05,22,02,03,1.60
2017,05,22,02,04,3.20
2017,05,22,02,05,3.20
2017,05,22,02,17,1.60
2017,05,22,02,19,1.60
2017,05,22,02,25,1.60
2017,05,22,02,27,1.60
2017,05,22,02,28,1.60
2017,05,22,02,29,3.20
2017,05,22,02,30,3.20
2017,05,22,02,31,1.60
2017,05,22,02,32,1.60
2017,05,22,02,33,3.20
2017,05,22,02,34,3.20
2017,05,22,02,37,3.20
2017,05,22,02,38,3.20
2017,05,22,02,39,3.20
2017,05,22,02,40,1.60
2017,05,22,02,43,3.20
2017,05,22,02,44,3.20
2017,05,22,02,45,1.60
2017,05,22,02,46,3.20
2017,05,22,02,47,1.60
2017,05,22,02,48,3.20
2017,05,22,02,49,1.60
2017,05,22,02,50,1.60
2017,05,22,02,51,3.20
2017,05,22,02,52,1.60
2017,05,22,02,53,1.60
2017,05,22,02,54,1.60
2017,05,22,02,55,1.60
2017,05,22,02,57,1.60
2017,05,22,02,58,1.60
2017,05,22,02,59,3.20
2017,05,22,03,01,1.60
2017,05,22,03,06,1.60
2017,05,22,03,07,1.60
2017,05,22,03,10,3.20
2017,05,22,03,11,3.20
2017,05,22,03,12,1.60
2017,05,22,03,13,3.20
2017,05,22,03,14,1.60
2017,05,22,03,15,1.60
2017,05,22,03,16,3.20
2017,05,22,03,17,1.60
2017,05,22,03,20,1.60
2017,05,22,03,21,1.60
2017,05,22,03,22,1.60
2017,05,22,03,37,1.60
2017,05,22,03,38,1.60
2017,05,22,03,40,1.60
2017,05,22,03,47,1.60
2017,05,22,03,48,1.60
2017,05,22,03,49,1.60
2017,05,22,03,52,1.60
2017,05,22,03,53,1.60
2017,05,22,03,54,1.60
2017,05,22,03,55,1.60
2017,05,22,04,05,1.60
2017,05,22,04,06,1.60
2017,05,22,04,07,1.60
2017,05,22,04,09,4.80
2017,05,22,04,10,4.80
2017,05,22,04,11,3.20
2017,05,22,04,12,1.60
2017,05,22,04,13,1.60
2017,05,22,04,14,1.60
2017,05,22,04,16,1.60
2017,05,22,04,17,1.60
2017,05,22,04,31,1.60
2017,05,22,04,32,1.60
2017,05,22,04,33,1.60
2017,05,22,04,34,1.60
2017,05,22,04,39,3.20
2017,05,22,05,15,1.60
2017,05,22,05,16,3.20
2017,05,22,05,17,3.20
2017,05,22,05,18,3.20
2017,05,22,05,19,3.20
2017,05,22,05,20,3.20
2017,05,22,05,21,3.20
2017,05,22,05,22,3.20
2017,05,22,05,23,3.20
2017,05,22,05,24,3.20
2017,05,22,05,25,3.20
2017,05,22,05,26,3.20
2017,05,22,05,27,3.20
2017,05,22,05,28,3.20
2017,05,22,05,29,4.80
2017,05,22,05,30,4.80
2017,05,22,05,31,4.80
2017,05,22,05,32,4.80
2017,05,22,05,33,4.80
2017,05,22,05,34,4.80
2017,05,22,05,35,4.80
2017,05,22,05,36,3.20
2017,05,22,05,37,4.80
2017,05,22,05,38,3.20
2017,05,22,05,39,4.80
2017,05,22,05,40,4.80
2017,05,22,05,41,4.80
2017,05,22,05,42,4.80
2017,05,22,05,43,3.20
2017,05,22,05,44,3.20
2017,05,22,05,45,4.80
2017,05,22,05,46,3.20
2017,05,22,05,47,3.20
2017,05,22,05,48,3.20
2017,05,22,05,49,3.20
2017,05,22,05,50,1.60
2017,05,22,05,51,3.20
2017,05,22,05,52,3.20
2017,05,22,05,53,1.60
2017,05,22,05,54,1.60
2017,05,22,05,57,1.60
2017,05,22,06,12,1.60
2017,05,22,06,15,1.60
2017,05,22,06,16,1.60
2017,05,22,06,17,1.60
2017,05,22,06,21,3.20
2017,05,22,06,22,1.60
2017,05,22,06,23,1.60
2017,05,22,06,24,3.20
2017,05,22,06,25,1.60
2017,05,22,06,26,1.60
2017,05,22,06,27,1.60
2017,05,22,06,28,1.60
2017,05,22,06,29,1.60
2017,05,22,06,32,3.20
2017,05,22,06,33,1.60
2017,05,22,06,35,3.20
2017,05,22,06,39,3.20
2017,05,22,06,40,3.20
2017,05,22,06,41,3.20
2017,05,22,06,44,1.60
2017,05,22,06,45,3.20
2017,05,22,06,46,1.60
2017,05,22,06,47,3.20
2017,05,22,06,48,3.20
2017,05,22,06,49,1.60
2017,05,22,06,50,1.60
2017,05,22,06,51,1.60
2017,05,22,06,52,1.60
2017,05,22,06,53,3.20
2017,05,22,06,54,3.20
2017,05,22,06,55,1.60
2017,05,22,06,56,1.60
2017,05,22,06,57,1.60
2017,05,22,06,58,1.60
2017,05,22,07,00,1.60
2017,05,22,07,01,1.60
2017,05,22,07,02,3.20
2017,05,22,07,03,1.60
2017,05,22,07,04,3.20
2017,05,22,07,05,1.60
2017,05,22,07,06,1.60
2017,05,22,07,07,1.60
2017,05,22,07,08,1.60
2017,05,22,07,11,1.60
2017,05,22,07,15,1.60
2017,05,22,07,16,1.60
2017,05,22,07,17,1.60
2017,05,22,07,18,1.60
2017,05,22,07,19,3.20
2017,05,22,07,20,3.20
2017,05,22,07,21,1.60
2017,05,22,07,23,1.60
2017,05,22,07,24,3.20
2017,05,22,07,25,4.80
2017,05,22,07,26,3.20
2017,05,22,07,27,3.20
2017,05,22,07,28,3.20
2017,05,22,07,29,3.20
2017,05,22,07,30,1.60
2017,05,22,07,31,1.60
2017,05,22,07,32,1.60
2017,05,22,07,33,3.20
2017,05,22,07,34,1.60
2017,05,22,07,35,1.60
2017,05,22,07,36,3.20
2017,05,22,07,37,3.20
2017,05,22,07,38,1.60
2017,05,22,07,39,4.80
2017,05,22,07,40,3.20
2017,05,22,07,41,4.80
2017,05,22,07,42,6.40
2017,05,22,07,43,3.20
2017,05,22,07,44,4.80
2017,05,22,07,45,3.20
2017,05,22,07,46,3.20
2017,05,22,07,47,3.20
2017,05,22,07,48,3.20
2017,05,22,07,49,1.60
2017,05,22,07,50,4.80
2017,05,22,07,51,4.80
2017,05,22,07,52,3.20
2017,05,22,07,53,3.20
2017,05,22,07,54,3.20
2017,05,22,07,55,3.20
2017,05,22,07,56,3.20
2017,05,22,07,57,1.60
2017,05,22,07,58,3.20
2017,05,22,07,59,3.20
2017,05,22,08,00,1.60
2017,05,22,08,01,6.40
2017,05,22,08,02,3.20
2017,05,22,08,03,3.20
2017,05,22,08,04,3.20
2017,05,22,08,05,4.80
2017,05,22,08,06,4.80
2017,05,22,08,07,3.20
2017,05,22,08,08,3.20
2017,05,22,08,09,3.20
2017,05,22,08,10,1.60
2017,05,22,08,11,3.20
2017,05,22,08,12,1.60
2017,05,22,08,13,1.60
2017,05,22,08,14,3.20
2017,05,22,08,15,6.40
2017,05,22,08,16,3.20
2017,05,22,08,17,1.60
2017,05,22,08,18,4.80
2017,05,22,08,19,3.20
2017,05,22,08,20,4.80
2017,05,22,08,21,4.80
2017,05,22,08,22,3.20
2017,05,22,08,23,3.20
2017,05,22,08,24,3.20
2017,05,22,08,25,4.80
2017,05,22,08,26,4.80
2017,05,22,08,27,4.80
2017,05,22,08,28,3.20
2017,05,22,08,29,4.80
2017,05,22,08,30,3.20
2017,05,22,08,31,3.20
2017,05,22,08,32,6.40
2017,05,22,08,33,4.80
2017,05,22,08,34,4.80
2017,05,22,08,35,4.80
2017,05,22,08,36,4.80
2017,05,22,08,37,4.80
2017,05,22,08,38,8.10
2017,05,22,08,39,6.40
2017,05,22,08,40,4.80
2017,05,22,08,41,9.60
2017,05,22,08,42,9.60
2017,05,22,08,43,9.60
2017,05,22,08,44,4.80
2017,05,22,08,45,8.10
2017,05,22,08,46,3.20
2017,05,22,08,47,9.60
2017,05,22,08,48,6.40
2017,05,22,08,49,6.40
2017,05,22,08,50,3.20
2017,05,22,08,51,4.80
2017,05,22,08,52,6.40
2017,05,22,08,53,17.70
2017,05,22,08,54,4.80
2017,05,22,08,55,11.30
2017,05,22,08,56,19.30
2017,05,22,08,57,11.30
2017,05,22,08,58,16.10
2017,05,22,08,59,6.40
2017,05,22,09,00,8.10
2017,05,22,09,01,8.10
2017,05,22,09,02,6.40
2017,05,22,09,03,16.10
2017,05,22,09,04,14.50
2017,05,22,09,05,11.30
2017,05,22,09,06,9.60
2017,05,22,09,07,14.50
2017,05,22,09,08,16.10
2017,05,22,09,09,19.30
2017,05,22,09,10,14.50
2017,05,22,09,11,16.10
2017,05,22,09,12,14.50
2017,05,22,09,13,17.70
2017,05,22,09,14,11.30
2017,05,22,09,15,11.30
2017,05,22,09,16,14.50
2017,05,22,09,17,20.90
2017,05,22,09,18,24.20
2017,05,22,09,19,19.30
2017,05,22,09,20,16.10
2017,05,22,09,21,14.50
2017,05,22,09,22,16.10
2017,05,22,09,23,19.30
2017,05,22,09,24,19.30
2017,05,22,09,25,17.70
2017,05,22,09,26,19.30
2017,05,22,09,27,24.20
2017,05,22,09,28,27.40
2017,05,22,09,29,24.20
2017,05,22,09,30,19.30
2017,05,22,09,31,17.70
2017,05,22,09,32,14.50
2017,05,22,09,33,14.50
2017,05,22,09,34,16.10
2017,05,22,09,35,16.10
2017,05,22,09,36,11.30
2017,05,22,09,37,9.60
2017,05,22,09,38,17.70
2017,05,22,09,39,17.70
2017,05,22,09,40,14.50
2017,05,22,09,41,9.60
2017,05,22,09,42,11.30
2017,05,22,09,43,16.10
2017,05,22,09,44,16.10
2017,05,22,09,45,19.30
2017,05,22,09,46,19.30
2017,05,22,09,47,20.90
2017,05,22,09,48,20.90
2017,05,22,09,49,11.30
2017,05,22,09,50,16.10
2017,05,22,09,51,19.30
2017,05,22,09,52,19.30
2017,05,22,09,53,16.10
2017,05,22,09,54,16.10
2017,05,22,09,55,19.30
2017,05,22,09,56,9.60
2017,05,22,09,57,16.10
2017,05,22,09,58,19.30
2017,05,22,09,59,16.10
2017,05,22,10,00,11.30
2017,05,22,10,01,19.30
2017,05,22,10,02,17.70
2017,05,22,10,03,17.70
2017,05,22,10,04,17.70
2017,05,22,10,05,16.10
2017,05,22,10,06,16.10
2017,05,22,10,07,9.60
2017,05,22,10,08,9.60
2017,05,22,10,09,11.30
2017,05,22,10,10,8.10
2017,05,22,10,11,6.40
2017,05,22,10,12,8.10
2017,05,22,10,13,9.60
2017,05,22,10,14,9.60
2017,05,22,10,15,6.40
2017,05,22,10,16,6.40
2017,05,22,10,17,6.40
2017,05,22,10,18,6.40
2017,05,22,10,19,8.10
2017,05,22,10,20,6.40
2017,05,22,10,21,8.10
2017,05,22,10,22,8.10
2017,05,22,10,23,6.40
2017,05,22,10,24,8.10
2017,05,22,10,25,8.10
2017,05,22,10,26,8.10
2017,05,22,10,27,6.40
2017,05,22,10,28,4.80
2017,05,22,10,29,6.40
2017,05,22,10,30,6.40
2017,05,22,10,31,8.10
2017,05,22,10,32,8.10
2017,05,22,10,33,6.40
2017,05,22,10,34,9.60
2017,05,22,10,35,8.10
2017,05,22,10,36,8.10
2017,05,22,10,37,4.80
2017,05,22,10,38,6.40
2017,05,22,10,39,6.40
2017,05,22,10,40,4.80
2017,05,22,10,41,8.10
2017,05,22,10,42,6.40
2017,05,22,10,43,6.40
2017,05,22,10,44,8.10
2017,05,22,10,45,4.80
2017,05,22,10,46,9.60
2017,05,22,10,47,8.10
2017,05,22,10,48,4.80
2017,05,22,10,49,6.40
2017,05,22,10,50,8.10
2017,05,22,10,51,6.40
2017,05,22,10,52,6.40
2017,05,22,10,53,4.80
2017,05,22,10,54,9.60
2017,05,22,10,55,6.40
2017,05,22,10,56,6.40
2017,05,22,10,57,4.80
2017,05,22,10,58,6.40
2017,05,22,10,59,9.60
2017,05,22,11,00,9.60
2017,05,22,11,01,8.10
2017,05,22,11,02,9.60
2017,05,22,11,03,11.30
2017,05,22,11,04,9.60
2017,05,22,11,05,9.60
2017,05,22,11,06,3.20
2017,05,22,11,07,6.40
2017,05,22,11,08,6.40
2017,05,22,11,09,8.10
2017,05,22,11,10,9.60
2017,05,22,11,11,6.40
2017,05,22,11,12,6.40
2017,05,22,11,13,6.40
2017,05,22,11,14,4.80
2017,05,22,11,15,4.80
2017,05,22,11,16,4.80
2017,05,22,11,17,6.40
2017,05,22,11,18,3.20
2017,05,22,11,19,6.40
2017,05,22,11,20,6.40
2017,05,22,11,21,4.80
2017,05,22,11,22,8.10
2017,05,22,11,23,8.10
2017,05,22,11,24,11.30
2017,05,22,11,25,8.10
2017,05,22,11,26,6.40
2017,05,22,11,27,3.20
2017,05,22,11,28,11.30
2017,05,22,11,29,9.60
2017,05,22,11,30,9.60
2017,05,22,11,31,8.10
2017,05,22,11,32,6.40
2017,05,22,11,33,4.80
2017,05,22,11,34,4.80
2017,05,22,11,35,8.10
2017,05,22,11,36,6.40
2017,05,22,11,37,4.80
2017,05,22,11,38,3.20
2017,05,22,11,39,8.10
2017,05,22,11,40,3.20
2017,05,22,11,41,4.80
2017,05,22,11,42,6.40
2017,05,22,11,43,8.10
2017,05,22,11,44,8.10
2017,05,22,11,45,6.40
2017,05,22,11,46,4.80
2017,05,22,11,47,8.10
2017,05,22,11,48,6.40
2017,05,22,11,49,8.10
2017,05,22,11,50,9.60
2017,05,22,11,51,6.40
2017,05,22,11,52,6.40
2017,05,22,11,53,8.10
2017,05,22,11,54,9.60
2017,05,22,11,55,8.10
2017,05,22,11,56,9.60
2017,05,22,11,57,6.40
2017,05,22,11,58,8.10
2017,05,22,11,59,11.30
2017,05,22,12,00,8.10
2017,05,22,12,01,8.10
2017,05,22,12,02,3.20
2017,05,22,12,03,6.40
2017,05,22,12,04,6.40
2017,05,22,12,05,8.10
2017,05,22,12,06,4.80
2017,05,22,12,07,4.80
2017,05,22,12,08,9.60
2017,05,22,12,09,6.40
2017,05,22,12,10,8.10
2017,05,22,12,11,6.40
2017,05,22,12,12,8.10
2017,05,22,12,13,4.80
2017,05,22,12,14,3.20
2017,05,22,12,15,3.20
2017,05,22,12,16,4.80
2017,05,22,12,17,6.40
2017,05,22,12,18,4.80
2017,05,22,12,19,4.80
2017,05,22,12,20,4.80
2017,05,22,12,21,8.10
2017,05,22,12,22,9.60
2017,05,22,12,23,9.60
2017,05,22,12,24,9.60
2017,05,22,12,25,9.60
2017,05,22,12,26,8.10
2017,05,22,12,27,9.60
2017,05,22,12,28,9.60
2017,05,22,12,29,6.40
2017,05,22,12,30,9.60
2017,05,22,12,31,8.10
2017,05,22,12,32,4.80
2017,05,22,12,33,8.10
2017,05,22,12,34,6.40
2017,05,22,12,35,8.10
2017,05,22,12,36,8.10
2017,05,22,12,37,6.40
2017,05,22,12,38,11.30
2017,05,22,12,39,3.20
2017,05,22,12,40,8.10
2017,05,22,12,41,4.80
2017,05,22,12,42,4.80
2017,05,22,12,43,6.40
2017,05,22,12,44,9.60
2017,05,22,12,45,11.30
2017,05,22,12,46,9.60
2017,05,22,12,47,8.10
2017,05,22,12,48,8.10
2017,05,22,12,49,6.40
2017,05,22,12,50,8.10
2017,05,22,12,51,8.10
2017,05,22,12,52,8.10
2017,05,22,12,53,11.30
2017,05,22,12,54,8.10
2017,05,22,12,55,6.40
2017,05,22,12,56,9.60
2017,05,22,12,57,8.10
2017,05,22,12,58,6.40
2017,05,22,12,59,4.80
2017,05,22,13,00,4.80
2017,05,22,13,01,6.40
2017,05,22,13,02,4.80
2017,05,22,13,03,6.40
2017,05,22,13,04,11.30
2017,05,22,13,05,8.10
2017,05,22,13,06,6.40
2017,05,22,13,07,3.20
2017,05,22,13,08,6.40
2017,05,22,13,09,14.50
2017,05,22,13,10,8.10
2017,05,22,13,11,8.10
2017,05,22,13,12,6.40
2017,05,22,13,13,8.10
2017,05,22,13,14,9.60
2017,05,22,13,15,6.40
2017,05,22,13,16,9.60
2017,05,22,13,17,4.80
2017,05,22,13,18,9.60
2017,05,22,13,19,9.60
2017,05,22,13,20,9.60
2017,05,22,13,21,8.10
2017,05,22,13,22,9.60
2017,05,22,13,23,9.60
2017,05,22,13,24,9.60
2017,05,22,13,25,11.30
2017,05,22,13,26,11.30
2017,05,22,13,27,8.10
2017,05,22,13,28,11.30
2017,05,22,13,29,4.80
2017,05,22,13,30,6.40
2017,05,22,13,31,9.60
2017,05,22,13,32,9.60
2017,05,22,13,33,4.80
2017,05,22,13,34,6.40
2017,05,22,13,35,6.40
2017,05,22,13,36,8.10
2017,05,22,13,37,4.80
2017,05,22,13,38,4.80
2017,05,22,13,39,3.20
2017,05,22,13,40,4.80
2017,05,22,13,41,6.40
2017,05,22,13,42,8.10
2017,05,22,13,43,14.50
2017,05,22,13,44,4.80
2017,05,22,13,45,9.60
2017,05,22,13,46,9.60
2017,05,22,13,47,11.30
2017,05,22,13,48,9.60
2017,05,22,13,49,9.60
2017,05,22,13,50,11.30
2017,05,22,13,51,8.10
2017,05,22,13,52,8.10
2017,05,22,13,53,9.60
2017,05,22,13,54,9.60
2017,05,22,13,55,6.40
2017,05,22,13,56,4.80
2017,05,22,13,57,6.40
2017,05,22,13,58,4.80
2017,05,22,13,59,11.30
2017,05,22,14,00,4.80
2017,05,22,14,01,4.80
2017,05,22,14,02,8.10
2017,05,22,14,03,9.60
2017,05,22,14,04,8.10
2017,05,22,14,05,8.10
2017,05,22,14,06,9.60
2017,05,22,14,07,8.10
2017,05,22,14,08,8.10
2017,05,22,14,09,6.40
2017,05,22,14,10,6.40
2017,05,22,14,11,8.10
2017,05,22,14,12,14.50
2017,05,22,14,13,14.50
2017,05,22,14,14,11.30
2017,05,22,14,15,6.40
2017,05,22,14,16,8.10
2017,05,22,14,17,9.60
2017,05,22,14,18,11.30
2017,05,22,14,19,6.40
2017,05,22,14,20,11.30
2017,05,22,14,21,6.40
2017,05,22,14,22,8.10
2017,05,22,14,23,12.90
2017,05,22,14,24,11.30
2017,05,22,14,25,6.40
2017,05,22,14,26,8.10
2017,05,22,14,27,4.80
2017,05,22,14,28,4.80
2017,05,22,14,29,8.10
2017,05,22,14,30,6.40
2017,05,22,14,31,6.40
2017,05,22,14,32,6.40
2017,05,22,14,33,6.40
2017,05,22,14,34,6.40
2017,05,22,14,35,4.80
2017,05,22,14,36,6.40
2017,05,22,14,37,9.60
2017,05,22,14,38,9.60
2017,05,22,14,39,8.10
2017,05,22,14,40,6.40
2017,05,22,14,41,9.60
2017,05,22,14,42,9.60
2017,05,22,14,43,6.40
2017,05,22,14,44,6.40
2017,05,22,14,45,8.10
2017,05,22,14,46,4.80
2017,05,22,14,47,9.60
2017,05,22,14,48,8.10
2017,05,22,14,49,12.90
2017,05,22,14,50,14.50
2017,05,22,14,51,14.50
2017,05,22,14,52,14.50
2017,05,22,14,53,11.30
2017,05,22,14,54,12.90
2017,05,22,14,55,12.90
2017,05,22,14,56,11.30
2017,05,22,14,57,11.30
2017,05,22,14,58,11.30
2017,05,22,14,59,14.50
2017,05,22,15,00,14.50
2017,05,22,15,01,11.30
2017,05,22,15,02,11.30
2017,05,22,15,03,14.50
2017,05,22,15,04,9.60
2017,05,22,15,05,11.30
2017,05,22,15,06,12.90
2017,05,22,15,07,14.50
2017,05,22,15,08,12.90
2017,05,22,15,09,12.90
2017,05,22,15,10,12.90
2017,05,22,15,11,9.60
2017,05,22,15,12,6.40
2017,05,22,15,13,6.40
2017,05,22,15,14,9.60
2017,05,22,15,15,11.30
2017,05,22,15,16,8.10
2017,05,22,15,17,8.10
2017,05,22,15,18,6.40
2017,05,22,15,19,9.60
2017,05,22,15,20,9.60
2017,05,22,15,21,6.40
2017,05,22,15,22,8.10
2017,05,22,15,23,11.30
2017,05,22,15,24,9.60
2017,05,22,15,25,11.30
2017,05,22,15,26,11.30
2017,05,22,15,27,9.60
2017,05,22,15,28,11.30
2017,05,22,15,29,16.10
2017,05,22,15,30,14.50
2017,05,22,15,31,16.10
2017,05,22,15,32,16.10
2017,05,22,15,33,11.30
2017,05,22,15,34,11.30
2017,05,22,15,35,9.60
2017,05,22,15,36,8.10
2017,05,22,15,37,9.60
2017,05,22,15,38,9.60
2017,05,22,15,39,6.40
2017,05,22,15,40,8.10
2017,05,22,15,41,8.10
2017,05,22,15,42,9.60
2017,05,22,15,43,8.10
2017,05,22,15,44,8.10
2017,05,22,15,45,8.10
2017,05,22,15,46,8.10
2017,05,22,15,47,8.10
2017,05,22,15,48,8.10
2017,05,22,15,49,11.30
2017,05,22,15,50,12.90
2017,05,22,15,51,12.90
2017,05,22,15,52,11.30
2017,05,22,15,53,9.60
2017,05,22,15,54,9.60
2017,05,22,15,55,11.30
2017,05,22,15,56,11.30
2017,05,22,15,57,8.10
2017,05,22,15,58,9.60
2017,05,22,15,59,8.10
2017,05,22,16,00,9.60
2017,05,22,16,01,9.60
2017,05,22,16,02,8.10
2017,05,22,16,03,9.60
2017,05,22,16,04,8.10
2017,05,22,16,05,6.40
2017,05,22,16,06,6.40
2017,05,22,16,07,8.10
2017,05,22,16,08,8.10
2017,05,22,16,09,8.10
2017,05,22,16,10,8.10
2017,05,22,16,11,6.40
2017,05,22,16,12,4.80
2017,05,22,16,13,6.40
2017,05,22,16,14,4.80
2017,05,22,16,15,4.80
2017,05,22,16,16,8.10
2017,05,22,16,17,8.10
2017,05,22,16,18,6.40
2017,05,22,16,19,4.80
2017,05,22,16,20,4.80
2017,05,22,16,21,4.80
2017,05,22,16,22,8.10
2017,05,22,16,23,6.40
2017,05,22,16,24,4.80
2017,05,22,16,25,6.40
2017,05,22,16,26,4.80
2017,05,22,16,27,6.40
2017,05,22,16,28,6.40
2017,05,22,16,29,8.10
2017,05,22,16,30,6.40
2017,05,22,16,31,6.40
2017,05,22,16,32,6.40
2017,05,22,16,33,8.10
2017,05,22,16,34,11.30
2017,05,22,16,35,8.10
2017,05,22,16,36,6.40
2017,05,22,16,37,8.10
2017,05,22,16,38,11.30
2017,05,22,16,39,8.10
2017,05,22,16,40,9.60
2017,05,22,16,41,9.60
2017,05,22,16,42,11.30
2017,05,22,16,43,9.60
2017,05,22,16,44,9.60
2017,05,22,16,45,9.60
2017,05,22,16,46,8.10
2017,05,22,16,47,8.10
2017,05,22,16,48,8.10
2017,05,22,16,49,9.60
2017,05,22,16,50,9.60
2017,05,22,16,51,8.10
2017,05,22,16,52,8.10
2017,05,22,16,53,8.10
2017,05,22,16,54,9.60
2017,05,22,16,55,9.60
2017,05,22,16,56,9.60
2017,05,22,16,57,12.90
2017,05,22,16,58,11.30
2017,05,22,16,59,11.30
2017,05,22,17,00,12.90
2017,05,22,17,01,11.30
2017,05,22,17,02,9.60
2017,05,22,17,03,9.60
2017,05,22,17,04,12.90
2017,05,22,17,05,14.50
2017,05,22,17,06,11.30
2017,05,22,17,07,11.30
2017,05,22,17,08,11.30
2017,05,22,17,09,11.30
2017,05,22,17,10,9.60
2017,05,22,17,11,11.30
2017,05,22,17,12,11.30
2017,05,22,17,13,11.30
2017,05,22,17,14,11.30
2017,05,22,17,15,9.60
2017,05,22,17,16,11.30
2017,05,22,17,17,8.10
2017,05,22,17,18,8.10
2017,05,22,17,19,11.30
2017,05,22,17,20,6.40
2017,05,22,17,21,8.10
2017,05,22,17,22,6.40
2017,05,22,17,23,4.80
2017,05,22,17,24,4.80
2017,05,22,17,25,8.10
2017,05,22,17,26,8.10
2017,05,22,17,27,8.10
2017,05,22,17,28,6.40
2017,05,22,17,29,6.40
2017,05,22,17,30,4.80
2017,05,22,17,31,9.60
2017,05,22,17,32,9.60
2017,05,22,17,33,8.10
2017,05,22,17,34,6.40
2017,05,22,17,35,4.80
2017,05,22,17,36,8.10
2017,05,22,17,37,6.40
2017,05,22,17,38,4.80
2017,05,22,17,39,3.20
2017,05,22,17,40,3.20
2017,05,22,17,41,4.80
2017,05,22,17,42,6.40
2017,05,22,17,43,6.40
2017,05,22,17,44,6.40
2017,05,22,17,45,4.80
2017,05,22,17,46,8.10
2017,05,22,17,47,6.40
2017,05,22,17,48,6.40
2017,05,22,17,49,6.40
2017,05,22,17,50,8.10
2017,05,22,17,51,6.40
2017,05,22,17,52,8.10
2017,05,22,17,53,4.80
2017,05,22,17,54,4.80
2017,05,22,17,55,4.80
2017,05,22,17,56,4.80
2017,05,22,17,57,6.40
2017,05,22,17,58,6.40
2017,05,22,17,59,4.80
2017,05,22,18,00,6.40
2017,05,22,18,01,4.80
2017,05,22,18,02,6.40
2017,05,22,18,03,6.40
2017,05,22,18,04,6.40
2017,05,22,18,05,4.80
2017,05,22,18,06,4.80
2017,05,22,18,07,6.40
2017,05,22,18,08,6.40
2017,05,22,18,09,6.40
2017,05,22,18,10,8.10
2017,05,22,18,11,8.10
2017,05,22,18,12,8.10
2017,05,22,18,13,4.80
2017,05,22,18,14,6.40
2017,05,22,18,15,8.10
2017,05,22,18,16,6.40
2017,05,22,18,17,4.80
2017,05,22,18,18,4.80
2017,05,22,18,19,4.80
2017,05,22,18,20,8.10
2017,05,22,18,21,4.80
2017,05,22,18,22,4.80
2017,05,22,18,23,3.20
2017,05,22,18,24,1.60
2017,05,22,18,25,4.80
2017,05,22,18,26,4.80
2017,05,22,18,27,4.80
2017,05,22,18,28,4.80
2017,05,22,18,29,4.80
2017,05,22,18,30,6.40
2017,05,22,18,31,6.40
2017,05,22,18,32,8.10
2017,05,22,18,33,6.40
2017,05,22,18,34,8.10
2017,05,22,18,35,6.40
2017,05,22,18,36,9.60
2017,05,22,18,37,9.60
2017,05,22,18,38,6.40
2017,05,22,18,39,4.80
2017,05,22,18,40,6.40
2017,05,22,18,41,4.80
2017,05,22,18,42,3.20
2017,05,22,18,43,3.20
2017,05,22,18,44,3.20
2017,05,22,18,45,6.40
2017,05,22,18,46,8.10
2017,05,22,18,47,11.30
2017,05,22,18,48,6.40
2017,05,22,18,49,8.10
2017,05,22,18,50,8.10
2017,05,22,18,51,8.10
2017,05,22,18,52,8.10
2017,05,22,18,53,9.60
2017,05,22,18,54,11.30
2017,05,22,18,55,6.40
2017,05,22,18,56,8.10
2017,05,22,18,57,8.10
2017,05,22,18,58,6.40
2017,05,22,18,59,6.40
2017,05,22,19,00,8.10
2017,05,22,19,01,9.60
2017,05,22,19,02,9.60
2017,05,22,19,03,9.60
2017,05,22,19,04,8.10
2017,05,22,19,05,8.10
2017,05,22,19,06,8.10
2017,05,22,19,07,4.80
2017,05,22,19,08,4.80
2017,05,22,19,09,6.40
2017,05,22,19,10,4.80
2017,05,22,19,11,4.80
2017,05,22,19,12,11.30
2017,05,22,19,13,11.30
2017,05,22,19,14,16.10
2017,05,22,19,15,16.10
2017,05,22,19,16,19.30
2017,05,22,19,17,16.10
2017,05,22,19,18,19.30
2017,05,22,19,19,19.30
2017,05,22,19,20,11.30
2017,05,22,19,21,16.10
2017,05,22,19,22,14.50
2017,05,22,19,23,14.50
2017,05,22,19,24,11.30
2017,05,22,19,25,9.60
2017,05,22,19,26,11.30
2017,05,22,19,27,8.10
2017,05,22,19,28,14.50
2017,05,22,19,29,9.60
2017,05,22,19,30,9.60
2017,05,22,19,31,6.40
2017,05,22,19,32,9.60
2017,05,22,19,33,8.10
2017,05,22,19,34,11.30
2017,05,22,19,35,16.10
2017,05,22,19,36,9.60
2017,05,22,19,37,9.60
2017,05,22,19,38,9.60
2017,05,22,19,39,14.50
2017,05,22,19,40,9.60
2017,05,22,19,41,9.60
2017,05,22,19,42,11.30
2017,05,22,19,43,11.30
2017,05,22,19,44,14.50
2017,05,22,19,45,14.50
2017,05,22,19,46,11.30
2017,05,22,19,47,14.50
2017,05,22,19,48,11.30
2017,05,22,19,49,17.70
2017,05,22,19,50,14.50
2017,05,22,19,51,14.50
2017,05,22,19,52,17.70
2017,05,22,19,53,16.10
2017,05,22,19,54,16.10
2017,05,22,19,55,16.10
2017,05,22,19,56,11.30
2017,05,22,19,57,9.60
2017,05,22,19,58,20.90
2017,05,22,19,59,17.70
2017,05,22,20,00,16.10
2017,05,22,20,01,11.30
2017,05,22,20,02,17.70
2017,05,22,20,03,14.50
2017,05,22,20,04,11.30
2017,05,22,20,05,9.60
2017,05,22,20,06,16.10
2017,05,22,20,07,17.70
2017,05,22,20,08,9.60
2017,05,22,20,09,9.60
2017,05,22,20,10,12.90
2017,05,22,20,11,11.30
2017,05,22,20,12,14.50
2017,05,22,20,13,14.50
2017,05,22,20,14,12.90
2017,05,22,20,15,14.50
2017,05,22,20,16,9.60
2017,05,22,20,17,17.70
2017,05,22,20,18,17.70
2017,05,22,20,19,14.50
2017,05,22,20,20,16.10
2017,05,22,20,21,19.30
2017,05,22,20,22,14.50
2017,05,22,20,23,19.30
2017,05,22,20,24,19.30
2017,05,22,20,25,20.90
2017,05,22,20,26,19.30
2017,05,22,20,27,20.90
2017,05,22,20,28,14.50
2017,05,22,20,29,14.50
2017,05,22,20,30,11.30
2017,05,22,20,31,19.30
2017,05,22,20,32,14.50
2017,05,22,20,33,11.30
2017,05,22,20,34,14.50
2017,05,22,20,35,11.30
2017,05,22,20,36,17.70
2017,05,22,20,37,14.50
2017,05,22,20,38,11.30
2017,05,22,20,39,16.10
2017,05,22,20,40,14.50
2017,05,22,20,41,9.60
2017,05,22,20,42,14.50
2017,05,22,20,43,12.90
2017,05,22,20,44,17.70
2017,05,22,20,45,9.60
2017,05,22,20,46,9.60
2017,05,22,20,47,11.30
2017,05,22,20,48,9.60
2017,05,22,20,49,9.60
2017,05,22,20,50,11.30
2017,05,22,20,51,11.30
2017,05,22,20,52,11.30
2017,05,22,20,53,9.60
2017,05,22,20,54,9.60
2017,05,22,20,55,9.60
2017,05,22,20,56,9.60
2017,05,22,20,57,11.30
2017,05,22,20,58,9.60
2017,05,22,20,59,6.40
2017,05,22,21,00,9.60
2017,05,22,21,01,8.10
2017,05,22,21,02,11.30
2017,05,22,21,03,11.30
2017,05,22,21,04,9.60
2017,05,22,21,05,11.30
2017,05,22,21,06,11.30
2017,05,22,21,07,14.50
2017,05,22,21,08,12.90
2017,05,22,21,09,11.30
2017,05,22,21,10,9.60
2017,05,22,21,11,9.60
2017,05,22,21,12,9.60
2017,05,22,21,13,9.60
2017,05,22,21,14,9.60
2017,05,22,21,15,9.60
2017,05,22,21,16,11.30
2017,05,22,21,17,9.60
2017,05,22,21,18,11.30
2017,05,22,21,19,11.30
2017,05,22,21,20,11.30
2017,05,22,21,21,16.10
2017,05,22,21,22,14.50
2017,05,22,21,23,11.30
2017,05,22,21,24,11.30
2017,05,22,21,25,14.50
2017,05,22,21,26,12.90
2017,05,22,21,27,11.30
2017,05,22,21,28,14.50
2017,05,22,21,29,12.90
2017,05,22,21,30,14.50
2017,05,22,21,31,14.50
2017,05,22,21,32,19.30